[[{"header":{"parameterUnit":"m.s-1","parameterCategory":1,"la1":30.2991,"la2":30.254,"lo1":-89.0895,"lo2":-89.0444,"dy":0.0017,"dx":0.0017,"nx":28,"ny":28,"refTime":"2024-07-29T21:00:00:Z","depth":0,"parameterNumber":2,"parameterNumberName":"U-component_of_WINDS"},"data":[0,0,0,0,0,0,0,0,0,0,0,0,0,0,0,0,0,0,0,0,0,0,0,0,0,0,0,0,0,0,0,0,0,0,0,0,0,0,0,0,0,0,0,0,0,0,0,0,0,0,0,0,0,0,0,0,0,0,1.0997,1.0999,0,1.1109,1.1111,1.1112,1.1128,1.1127,1.1126,1.1125,1.125,1.1255,1.1259,0,0,0,0,0,0,0,0,0,0,0,0,0,1.0808,1.0811,1.0997,1.0999,1.1,1.1109,1.1111,1.1112,1.1128,1.1127,1.1125,1.1124,1.1249,1.1254,1.1259,0,0,0,0,0,0,0,0,0,0,0,0,0,1.0902,1.0812,1.0997,1.1021,1.1024,1.1109,1.1111,1.1113,1.1128,1.1127,1.1125,1.1124,1.1247,1.1253,1.126,1.1332,0,0,1.128,1.1283,0,0,0,0,0,0,0,0,1.0897,1.0909,1.1016,1.1019,1.1023,1.1103,1.109,1.1187,1.1129,1.1089,1.1125,1.1123,1.1203,1.1213,1.1238,1.1338,1.1344,1.128,1.1284,1.1287,1.1289,0,0,0,0,0,0,0,1.089,1.0904,1.1042,1.1018,1.1022,1.1029,1.1041,1.1108,1.1154,1.1092,1.1094,1.1106,1.1205,1.1232,1.1241,1.1345,1.128,1.1286,1.129,1.1293,1.1513,1.1515,0,0,0,0,0,0,1.0878,1.0899,1.1038,1.1045,1.0954,1.1034,1.1047,1.1079,1.1153,1.1163,1.1107,1.1106,1.1221,1.1234,1.1246,1.1336,1.1287,1.1293,1.1297,1.1511,1.1513,1.1515,0,0,0,0,0,0,1.0874,1.089,1.1034,1.0972,1.0991,1.1039,1.1075,1.1082,1.1109,1.1165,1.1174,1.1126,1.1221,1.1237,1.131,1.1341,1.1296,1.1302,1.1508,1.1511,1.1514,1.1518,0,0,0,0,0,0,1.0868,1.0888,1.0914,1.0973,1.0994,1.1093,1.1077,1.1085,1.1119,1.1119,1.1184,1.1194,1.1221,1.13,1.1317,1.1349,1.1307,1.1506,1.151,1.1513,1.1515,1.152,1.1525,0,0,0,0,0,1.0861,1.0912,1.0915,1.0932,1.1027,1.1095,1.1108,1.1134,1.1121,1.1149,1.1185,1.1192,1.1334,1.1308,1.1326,1.1361,1.1504,1.1509,1.1513,1.1513,1.1519,1.1525,0,0,0,0,0,0,1.086,1.0921,1.0924,1.0995,1.1039,1.1097,1.1133,1.114,1.1192,1.119,1.1225,1.124,1.1312,1.1344,1.1313,1.1436,1.1419,1.1427,1.1412,1.1419,1.1424,1.1415,1.1313,0,0,0,0,0,1.0867,1.0913,1.0966,1.1024,1.1045,1.1085,1.1116,1.1132,1.1181,1.1201,1.1243,1.1293,1.1349,1.1386,1.1441,1.1519,1.1536,1.1553,1.1558,1.1561,1.1569,1.1615,1.1623,1.153,1.153,1.1529,0,0,1.0884,1.0923,1.0951,1.1024,1.106,1.1112,1.1101,1.1156,1.1195,1.1211,1.1282,1.1314,1.1373,1.1449,1.1486,1.1479,1.1598,1.1567,1.1569,1.1575,1.162,1.1629,1.1637,1.1533,1.1532,1.1531,0,0,1.094,1.0973,1.1025,1.1061,1.1115,1.1141,1.1154,1.1211,1.1232,1.1303,1.1316,1.1365,1.1461,1.1502,1.1536,1.1608,1.1618,1.1626,1.1652,1.1696,1.1704,1.171,1.1738,1.1747,1.1632,1.1632,1.1632,0,1.0955,1.1029,1.1052,1.1106,1.1139,1.1152,1.1207,1.1242,1.1313,1.1337,1.1327,1.1447,1.1488,1.1575,1.1592,1.1619,1.1637,1.1619,1.17,1.1707,1.1714,1.174,1.175,1.1633,1.1633,1.1633,1.1633,0,1.1046,1.1097,1.1134,1.1197,1.1235,1.1289,1.1324,1.1359,1.1373,1.1401,1.1475,1.1524,1.1589,1.1611,1.1626,1.1701,1.1695,1.1692,1.1676,1.1723,1.1749,1.1759,1.1634,1.1634,1.1634,1.1633,0,0,1.1105,1.118,1.1193,1.1223,1.1283,1.1325,1.1381,1.1441,1.1472,1.1521,1.1571,1.1651,1.1649,1.1687,1.1707,1.1746,1.1802,1.1739,1.1741,1.175,1.189,1.1893,1.1904,1.1808,1.181,1.1811,1.1886,0,1.117,1.1266,1.1289,1.1373,1.1422,1.1435,1.1485,1.1529,1.1557,1.1606,1.1639,1.1696,1.1687,1.171,1.1749,1.1787,1.1831,1.1782,1.1858,1.186,1.1843,1.1917,1.192,1.1988,1.1896,1.1897,1.1899,0,1.1258,1.1305,1.1393,1.1447,1.1468,1.1512,1.157,1.1615,1.1667,1.1685,1.1726,1.1743,1.1805,1.1784,1.1873,1.1839,1.1871,1.1895,1.1898,1.1908,1.1883,1.193,1.201,1.202,1.1914,1.1913,1.1912,0,1.1294,1.138,1.1443,1.1468,1.1533,1.1563,1.1592,1.1642,1.1677,1.1729,1.1752,1.1812,1.1845,1.1892,1.1925,1.1907,1.2012,1.1993,1.2032,1.2031,1.2054,1.2053,1.2142,1.2073,1.2073,1.2073,1.2072,0,1.1365,1.1419,1.146,1.15,1.1561,1.1589,1.165,1.168,1.1724,1.1772,1.1788,1.1834,1.1874,1.1926,1.1953,1.2023,1.2038,1.2057,1.2063,1.2056,1.2054,1.2079,1.2076,1.2075,1.2075,1.2074,1.2074,0,1.1416,1.1446,1.1516,1.1571,1.1586,1.1629,1.1677,1.1718,1.1746,1.1807,1.1823,1.1869,1.1931,1.1968,1.2048,1.2066,1.2144,1.2148,1.2125,1.2129,1.2165,1.2162,1.2275,1.2292,1.221,1.2211,1.2211,0,1.1459,1.1501,1.1559,1.159,1.1618,1.167,1.1705,1.1734,1.1771,1.1832,1.1867,1.1929,1.198,1.2079,1.2122,1.2184,1.219,1.2226,1.22,1.2191,1.2193,1.219,1.2196,1.2231,1.2231,1.2232,1.2232,0,1.1534,1.1547,1.1594,1.1648,1.1688,1.1733,1.1778,1.1804,1.1841,1.1882,1.1943,1.1983,1.2063,1.2126,1.219,1.2225,1.2236,1.224,1.2252,1.2246,1.2231,1.2241,1.2139,1.2238,1.2237,1.2237,1.2236,1.2236,1.1584,1.1622,1.1668,1.1721,1.1757,1.1798,1.1839,1.1871,1.1922,1.1987,1.2002,1.2067,1.212,1.2208,1.2243,1.2297,1.2292,1.231,1.2314,1.2319,1.232,1.2221,1.2309,1.2309,1.2309,1.2309,1.2309,0,1.1661,1.1691,1.1739,1.18,1.1842,1.1845,1.1895,1.1932,1.1988,1.2034,1.2083,1.2155,1.2216,1.2263,1.2326,1.2361,1.2368,1.2377,1.2375,1.2383,1.2321,1.2304,1.237,1.237,1.237,1.237,1.237,1.237,1.1706,1.1769,1.1788,1.1871,1.1902,1.1963,1.1991,1.203,1.2067,1.2146,1.2195,1.2224,1.2271,1.2338,1.2395,1.2408,1.2431,1.2439,1.2453,1.2394,1.2388,1.2381,1.2366,1.2444,1.2444,1.2512,1.2512,1.2513]},{"header":{"parameterUnit":"m.s-1","parameterCategory":1,"la1":30.2991,"la2":30.254,"lo1":-89.0895,"lo2":-89.0444,"dy":0.0017,"dx":0.0017,"nx":28,"ny":28,"refTime":"2024-07-29T21:00:00:Z","depth":0,"parameterNumber":3,"parameterNumberName":"V-component_of_WINDS"},"data":[0,0,0,0,0,0,0,0,0,0,0,0,0,0,0,0,0,0,0,0,0,0,0,0,0,0,0,0,0,0,0,0,0,0,0,0,0,0,0,0,0,0,0,0,0,0,0,0,0,0,0,0,0,0,0,0,0,0,1.408,1.4079,0,1.4037,1.4037,1.4036,1.4025,1.4025,1.4026,1.4026,1.3978,1.3976,1.3975,0,0,0,0,0,0,0,0,0,0,0,0,0,1.4145,1.4144,1.408,1.4079,1.4079,1.4037,1.4037,1.4036,1.4025,1.4025,1.4026,1.4026,1.3978,1.3976,1.3975,0,0,0,0,0,0,0,0,0,0,0,0,0,1.4111,1.4143,1.408,1.4068,1.4067,1.4037,1.4037,1.4036,1.4025,1.4025,1.4026,1.4026,1.3979,1.3977,1.3974,1.3952,0,0,1.3967,1.3966,0,0,0,0,0,0,0,0,1.4113,1.4108,1.407,1.4069,1.4067,1.4037,1.4042,1.4007,1.4025,1.4041,1.4026,1.4026,1.3997,1.3993,1.3984,1.3949,1.3947,1.3967,1.3966,1.3965,1.3964,0,0,0,0,0,0,0,1.4115,1.411,1.4063,1.407,1.4068,1.4063,1.4059,1.4035,1.4017,1.4039,1.4039,1.4034,1.3996,1.3986,1.3983,1.3947,1.3967,1.3965,1.3964,1.3963,1.3888,1.3887,0,0,0,0,0,0,1.412,1.4112,1.4064,1.4061,1.4092,1.4062,1.4057,1.4046,1.4017,1.4013,1.4034,1.4034,1.399,1.3985,1.3981,1.3951,1.3965,1.3962,1.3961,1.3889,1.3888,1.3887,0,0,0,0,0,0,1.4122,1.4116,1.4066,1.4087,1.408,1.406,1.4048,1.4045,1.4036,1.4013,1.4009,1.4028,1.399,1.3984,1.3959,1.3949,1.3961,1.3959,1.3889,1.3888,1.3888,1.3891,0,0,0,0,0,0,1.4124,1.4117,1.411,1.4087,1.4079,1.4046,1.4048,1.4044,1.4032,1.4032,1.4006,1.4002,1.399,1.3962,1.3956,1.3946,1.3957,1.389,1.3889,1.3888,1.3892,1.389,1.3889,0,0,0,0,0,1.4126,1.4112,1.4109,1.4104,1.407,1.4046,1.4041,1.4029,1.4032,1.4023,1.4008,1.4003,1.3951,1.396,1.3953,1.3942,1.3891,1.3889,1.3888,1.3892,1.3891,1.3889,0,0,0,0,0,0,1.4133,1.4109,1.4106,1.4084,1.4067,1.4044,1.4033,1.4028,1.4009,1.4009,1.3993,1.3987,1.3962,1.3949,1.3959,1.3917,1.392,1.3918,1.3926,1.3924,1.3923,1.3926,1.3956,0,0,0,0,0,1.4132,1.4117,1.4095,1.4078,1.407,1.4053,1.4042,1.4034,1.4015,1.4008,1.3991,1.3971,1.395,1.3937,1.3916,1.389,1.3882,1.3878,1.3877,1.3876,1.3874,1.3856,1.3853,1.3883,1.3883,1.3883,0,0,1.413,1.4115,1.4106,1.4079,1.4065,1.4047,1.4047,1.4028,1.4014,1.4004,1.3979,1.3966,1.3942,1.3916,1.3903,1.3904,1.3864,1.3875,1.3874,1.3872,1.3854,1.3851,1.3849,1.3882,1.3882,1.3882,0,0,1.4117,1.4105,1.4088,1.4074,1.4053,1.4041,1.4037,1.4014,1.4005,1.398,1.3972,1.3953,1.3918,1.3901,1.3888,1.3866,1.386,1.386,1.3853,1.3835,1.3833,1.3831,1.382,1.3817,1.3857,1.3857,1.3857,0,1.4116,1.4091,1.408,1.4061,1.4048,1.404,1.4021,1.4007,1.398,1.397,1.3973,1.3927,1.3911,1.3878,1.3873,1.3863,1.3856,1.3862,1.3835,1.3832,1.383,1.382,1.3816,1.3857,1.3857,1.3857,1.3857,0,1.409,1.4072,1.4061,1.4036,1.4022,1.4003,1.3987,1.3973,1.3966,1.3953,1.3926,1.3906,1.388,1.3872,1.3865,1.3838,1.3839,1.3838,1.3841,1.3827,1.3817,1.3814,1.3857,1.3857,1.3857,1.3857,0,0,1.4081,1.4049,1.4045,1.4032,1.4007,1.3992,1.3972,1.3948,1.3935,1.3916,1.3897,1.3867,1.3865,1.385,1.384,1.3825,1.3805,1.3825,1.3824,1.382,1.3771,1.3771,1.3767,1.3801,1.3801,1.38,1.3772,0,1.4063,1.4029,1.4017,1.3987,1.3969,1.3959,1.3941,1.3922,1.3909,1.389,1.3874,1.3852,1.3853,1.3844,1.3828,1.3811,1.3795,1.3813,1.378,1.3779,1.3785,1.3762,1.3762,1.3737,1.3768,1.3768,1.3767,0,1.4038,1.4019,1.3988,1.3964,1.3955,1.394,1.3915,1.3898,1.3875,1.3866,1.3848,1.3839,1.3814,1.382,1.3784,1.3797,1.3782,1.3771,1.377,1.3765,1.3772,1.3754,1.3729,1.3724,1.3762,1.3762,1.3762,0,1.4032,1.3999,1.3975,1.3965,1.3936,1.3925,1.3912,1.389,1.3875,1.3853,1.3843,1.3818,1.3804,1.3783,1.3766,1.3772,1.373,1.3735,1.372,1.372,1.3711,1.3711,1.368,1.3705,1.3705,1.3705,1.3705,0,1.4013,1.3994,1.3972,1.3957,1.3934,1.392,1.3896,1.3883,1.3863,1.3843,1.3833,1.3814,1.3793,1.3771,1.3757,1.3728,1.3722,1.3712,1.3708,1.3712,1.3713,1.3701,1.3702,1.3704,1.3704,1.3704,1.3704,0,1.4003,1.3988,1.3961,1.3935,1.3928,1.3912,1.3889,1.3873,1.3859,1.3834,1.3827,1.3804,1.3777,1.3758,1.3724,1.3714,1.3681,1.3679,1.3689,1.3687,1.3672,1.3673,1.3631,1.3624,1.3655,1.3655,1.3654,0,1.3991,1.3976,1.3949,1.3935,1.3923,1.3901,1.3886,1.387,1.3855,1.3826,1.3812,1.3785,1.3762,1.3718,1.3697,1.3669,1.3665,1.3652,1.366,1.3664,1.3662,1.3662,1.3659,1.365,1.365,1.365,1.365,0,1.3971,1.3964,1.3944,1.392,1.3902,1.3882,1.3862,1.3851,1.3831,1.3813,1.3786,1.3768,1.3732,1.3703,1.3673,1.3657,1.3649,1.3647,1.3642,1.3645,1.3651,1.3645,1.3684,1.3648,1.3648,1.3648,1.3649,1.3649,1.3958,1.3943,1.3921,1.3898,1.3881,1.3862,1.3845,1.3828,1.3806,1.3776,1.3767,1.3738,1.3712,1.3671,1.3654,1.3629,1.3629,1.3622,1.362,1.3618,1.3617,1.3656,1.3623,1.3623,1.3623,1.3623,1.3623,0,1.3936,1.3921,1.39,1.3872,1.3852,1.3848,1.3825,1.3808,1.3783,1.3761,1.3738,1.3705,1.3676,1.3652,1.3622,1.3606,1.3601,1.3598,1.3598,1.3594,1.3619,1.3626,1.3603,1.3603,1.3603,1.3603,1.3603,1.3603,1.3922,1.3896,1.3885,1.3849,1.3833,1.3806,1.3792,1.3773,1.3755,1.3719,1.3695,1.3681,1.3656,1.3624,1.3596,1.3589,1.3577,1.3575,1.3567,1.3591,1.3593,1.3595,1.3601,1.3573,1.3573,1.3544,1.3544,1.3544]}]]